Weather History for Silver Bay, MN

Change the Weather History Date:

Saturday, February 9, 2013

  Actual Average Record
Temperature  
Mean Temperature 15 °F -  
Max Temperature 24 °F 24 °F 37 °F (1998)
Min Temperature 6 °F 2 °F -13 °F (2003)
Degree Days  
Heating Degree Days 50    
Moisture  
Dew Point 15 °F    
Average Humidity 78    
Maximum Humidity 92    
Minimum Humidity 63    
Precipitation  
Precipitation 0.00 in - - ()
Sea Level Pressure  
Sea Level Pressure 30.04 in    
Wind  
Wind Speed 3 mph (SSW)    
Max Wind Speed 13 mph    
Max Gust Speed 17 mph    
Visibility 6 miles    
Events Snow    
Averages and records for this station are not official NWS values.
T = Trace of Precipitation, MM = Missing Value Source: NWS Daily Summary

Daily Weather History Graph

Daily Weather History Graph

Search for Another Location

Airport:

Trip Planner

Search our weather history database for the weather conditions in past years. The results will help you decide how hot, cold, wet, or windy it might be!

Date:

Astronomy

Feb. 09, 2013 Rise Set
Actual Time 7:19 AM CST 5:20 PM CST
Civil Twilight 6:47 AM CST 5:52 PM CST
Nautical Twilight 6:11 AM CST 6:28 PM CST
Astronomical Twilight 5:36 AM CST 7:04 PM CST
Moon 6:30 AM CST (2/9) 5:06 PM CST (2/9)
Length of Visible Light 11h 05m
Length of Day
10h 01m
Waning Crescent, 0% of the Moon is Illuminated
Feb 9
Waning Crescent
Feb 10
New
Feb 17
First Quarter
Feb 25
Full
Mar 4
Last Quarter

Hourly Weather History & Observations

Time (CST) Temp. Windchill Dew Point Humidity Pressure Visibility Wind Dir Wind Speed Gust Speed Precip Events Conditions
12:13 AM 14.0 °F - 10.4 °F 86% 30.22 in 10.0 mi Calm Calm - N/A   Clear
12:53 AM 12.2 °F - 8.6 °F 85% 30.21 in 10.0 mi Calm Calm - N/A   Mostly Cloudy
1:13 AM 12.2 °F - 8.6 °F 85% 30.21 in 10.0 mi Calm Calm - N/A   Mostly Cloudy
1:33 AM 10.4 °F - 3.2 °F 73% 30.19 in 10.0 mi Calm Calm - N/A   Scattered Clouds
1:53 AM 8.6 °F - 3.2 °F 79% 30.19 in 10.0 mi Calm Calm - N/A   Clear
2:13 AM 6.8 °F - 1.4 °F 79% 30.18 in 10.0 mi Calm Calm - N/A   Mostly Cloudy
2:33 AM 8.6 °F - 3.2 °F 79% 30.17 in 10.0 mi Calm Calm - N/A   Overcast
2:53 AM 8.6 °F - 5.0 °F 85% 30.17 in 10.0 mi Calm Calm - N/A   Scattered Clouds
3:13 AM 8.6 °F - 5.0 °F 85% 30.16 in 10.0 mi Calm Calm - N/A   Mostly Cloudy
3:33 AM 8.6 °F - 6.8 °F 92% 30.15 in 10.0 mi Calm Calm - N/A   Scattered Clouds
3:53 AM 12.2 °F 6.1 °F 8.6 °F 85% 30.15 in 10.0 mi SSW 3.5 mph - N/A   Scattered Clouds
4:13 AM 14.0 °F 6.5 °F 10.4 °F 86% 30.13 in 10.0 mi South 4.6 mph - N/A   Mostly Cloudy
4:33 AM 17.6 °F 6.4 °F 10.4 °F 73% 30.12 in 10.0 mi South 9.2 mph - N/A   Overcast
4:53 AM 19.4 °F 10.4 °F 10.4 °F 68% 30.12 in 10.0 mi SSW 6.9 mph - N/A   Overcast
5:13 AM 19.4 °F 12.8 °F 8.6 °F 63% 30.12 in 10.0 mi SSW 4.6 mph - N/A   Overcast
5:33 AM 19.4 °F 10.4 °F 8.6 °F 63% 30.11 in 10.0 mi SSW 6.9 mph - N/A   Overcast
5:53 AM 19.4 °F 9.5 °F 8.6 °F 63% 30.10 in 10.0 mi SSW 8.1 mph - N/A   Overcast
6:13 AM 19.4 °F 8.6 °F 8.6 °F 63% 30.10 in 10.0 mi SSW 9.2 mph - N/A   Overcast
6:33 AM 19.4 °F 9.5 °F 10.4 °F 68% 30.09 in 10.0 mi South 8.1 mph - N/A   Overcast
6:53 AM 19.4 °F 10.4 °F 10.4 °F 68% 30.09 in 10.0 mi South 6.9 mph - N/A   Overcast
7:13 AM 17.6 °F 8.2 °F 10.4 °F 73% 30.09 in 10.0 mi SSW 6.9 mph - N/A   Mostly Cloudy
7:33 AM 17.6 °F 10.7 °F 10.4 °F 73% 30.07 in 10.0 mi South 4.6 mph - N/A   Mostly Cloudy
7:53 AM 19.4 °F 14.3 °F 10.4 °F 68% 30.07 in 10.0 mi South 3.5 mph - N/A   Scattered Clouds
8:13 AM 19.4 °F 12.8 °F 10.4 °F 68% 30.07 in 10.0 mi SSW 4.6 mph - N/A   Clear
8:33 AM 19.4 °F 12.8 °F 10.4 °F 68% 30.06 in 10.0 mi South 4.6 mph - N/A   Scattered Clouds
8:53 AM 19.4 °F 11.5 °F 12.2 °F 74% 30.05 in 10.0 mi SSW 5.8 mph - N/A   Scattered Clouds
9:13 AM 19.4 °F 12.8 °F 12.2 °F 74% 30.05 in 10.0 mi South 4.6 mph - N/A   Clear
9:33 AM 19.4 °F 9.5 °F 12.2 °F 74% 30.06 in 10.0 mi SW 8.1 mph - N/A   Scattered Clouds
9:53 AM 19.4 °F 10.4 °F 14.0 °F 80% 30.05 in 4.0 mi SW 6.9 mph - N/A Snow Light Snow
10:13 AM 21.2 °F 14.9 °F 14.0 °F 74% 30.05 in 4.0 mi SSW 4.6 mph - N/A Snow Light Snow
10:33 AM 21.2 °F 13.6 °F 14.0 °F 74% 30.04 in 7.0 mi SSW 5.8 mph - N/A   Scattered Clouds
10:53 AM 21.2 °F 11.7 °F 15.8 °F 80% 30.04 in 7.0 mi SW 8.1 mph - N/A   Scattered Clouds
11:13 AM 21.2 °F 13.6 °F 15.8 °F 80% 30.03 in 7.0 mi SSW 5.8 mph - N/A   Clear
11:33 AM 23.0 °F 14.7 °F 15.8 °F 74% 30.03 in 7.0 mi SW 6.9 mph - N/A   Clear
11:53 AM 23.0 °F 12.4 °F 15.8 °F 74% 30.02 in 7.0 mi SW 10.4 mph - N/A   Clear
12:13 PM 23.0 °F 11.1 °F 15.8 °F 74% 30.01 in 7.0 mi SW 12.7 mph 17.3 mph N/A   Clear
12:33 PM 23.0 °F 13.9 °F 15.8 °F 74% 30.01 in 5.0 mi SW 8.1 mph 17.3 mph N/A   Haze
12:53 PM 23.0 °F 13.9 °F 17.6 °F 80% 30.01 in 5.0 mi SW 8.1 mph - N/A   Haze
1:13 PM 23.0 °F 11.7 °F 17.6 °F 80% 30.00 in 5.0 mi SW 11.5 mph - N/A   Haze
1:33 PM 24.8 °F 16.1 °F 17.6 °F 74% 30.00 in 5.0 mi SW 8.1 mph - N/A   Haze
1:53 PM 24.8 °F 16.9 °F 17.6 °F 74% 29.99 in 5.0 mi SW 6.9 mph - N/A   Haze
2:13 PM 24.8 °F 16.9 °F 17.6 °F 74% 29.99 in 5.0 mi SW 6.9 mph - N/A   Haze
2:33 PM 24.8 °F 17.9 °F 17.6 °F 74% 29.98 in 5.0 mi SW 5.8 mph - N/A   Haze
2:53 PM 24.8 °F 16.9 °F 17.6 °F 74% 29.98 in 5.0 mi SW 6.9 mph - N/A   Haze
3:13 PM 24.8 °F 15.3 °F 17.6 °F 74% 29.97 in 5.0 mi SSW 9.2 mph - N/A   Haze
3:33 PM 24.8 °F 19.1 °F 19.4 °F 80% 29.98 in 5.0 mi SW 4.6 mph - N/A   Haze
3:53 PM 24.8 °F 19.1 °F 19.4 °F 80% 29.97 in 5.0 mi SW 4.6 mph - N/A   Haze
4:13 PM 24.8 °F - 19.4 °F 80% 29.97 in 5.0 mi Calm Calm - N/A   Haze
4:33 PM 24.8 °F - 19.4 °F 80% 29.96 in 5.0 mi Calm Calm - N/A   Haze
4:53 PM 24.8 °F - 19.4 °F 80% 29.96 in 5.0 mi Calm Calm - N/A   Haze
5:13 PM 24.8 °F 19.1 °F 19.4 °F 80% 29.96 in 5.0 mi SSW 4.6 mph - N/A   Haze
5:33 PM 24.8 °F 19.1 °F 19.4 °F 80% 29.97 in 5.0 mi SSW 4.6 mph - N/A   Scattered Clouds
5:53 PM 24.8 °F - 19.4 °F 80% 29.97 in 5.0 mi Calm Calm - N/A   Scattered Clouds
6:13 PM 24.8 °F - 19.4 °F 80% 29.97 in 5.0 mi Calm Calm - N/A   Scattered Clouds
6:33 PM 24.8 °F - 19.4 °F 80% 29.97 in 4.0 mi Calm Calm - N/A   Scattered Clouds
6:53 PM 24.8 °F - 19.4 °F 80% 29.97 in 3.0 mi Calm Calm - N/A   Mostly Cloudy
7:13 PM 24.8 °F - 21.2 °F 86% 29.97 in 3.0 mi Calm Calm - N/A   Mostly Cloudy
7:33 PM 24.8 °F - 21.2 °F 86% 29.97 in 3.0 mi Calm Calm - N/A   Mostly Cloudy
7:53 PM 24.8 °F - 21.2 °F 86% 29.97 in 2.5 mi Calm Calm - N/A   Mostly Cloudy
8:13 PM 24.8 °F - 21.2 °F 86% 29.96 in 2.5 mi Calm Calm - N/A   Overcast
8:34 PM 24.8 °F 20.5 °F 21.2 °F 86% 29.97 in 2.5 mi SSW 3.5 mph - N/A   Overcast
8:53 PM 24.8 °F 20.5 °F 21.2 °F 86% 29.97 in 2.5 mi SW 3.5 mph - N/A   Overcast
9:13 PM 24.8 °F 16.9 °F 21.2 °F 86% 29.97 in 2.5 mi SSW 6.9 mph - N/A   Overcast
9:33 PM 24.8 °F 19.1 °F 21.2 °F 86% 29.96 in 2.5 mi SSW 4.6 mph - N/A   Overcast
9:53 PM 24.8 °F 16.9 °F 21.2 °F 86% 29.96 in 2.0 mi SSW 6.9 mph - N/A   Overcast
10:13 PM 24.8 °F 16.9 °F 21.2 °F 86% 29.96 in 2.5 mi SSW 6.9 mph - N/A   Overcast
10:33 PM 24.8 °F 19.1 °F 21.2 °F 86% 29.95 in 2.5 mi South 4.6 mph - N/A   Overcast
10:53 PM 24.8 °F 20.5 °F 21.2 °F 86% 29.96 in 2.5 mi SSW 3.5 mph - N/A   Overcast
11:13 PM 24.8 °F 19.1 °F 21.2 °F 86% 29.96 in 2.5 mi SSW 4.6 mph - N/A   Overcast
11:33 PM 24.8 °F 20.5 °F 21.2 °F 86% 29.96 in 2.5 mi SSW 3.5 mph - N/A   Overcast
11:53 PM 24.8 °F 20.5 °F 21.2 °F 86% 29.97 in 2.5 mi SSW 3.5 mph - N/A   Overcast